Regional Weather Roundup
Issued by NWS Sterling, VA

Home | Current Version | Previous Version | Text Only | Print | Product List | Glossary Off
Versions: 1 2 3 4 5 6 7 8 9 10 11 12 13 14 15 16 17 18 19 20 21 22 23 24 25 26 27 28 29

000
ASUS41 KLWX 242110
RWRLWX

REGIONAL WEATHER ROUNDUP
NATIONAL WEATHER SERVICE BALTIMORE MD/WASHINGTON DC
500 PM EDT FRI OCT 24 2014

Note: "FAIR" indicates few or no clouds below 12,000 feet
with no significant weather and/or obstructions to visibility.
 TC=TEMPERATURE CELSIUS

 * =Non NWS site. Station does not report precipitation (e.g. rain,
    snow, etc.), thunder, or fog.

DCZ001-MDZ009-015-VAZ040>042-051-053>054-242200-
WASHINGTON METRO

CITY           SKY/WX    TMP DP  RH WIND       PRES   REMARKS
WASHINGTON NAT PTSUNNY   70  35  27 NW9       29.90S
DULLES         PTSUNNY   64  39  39 W9        29.91S
ANDREWS AFB    MOSUNNY   66  36  32 NW14G21   29.89S
FT BELVOIR     MOSUNNY   67  40  37 W7        29.91S
QUANTICO       MOSUNNY   69  39  33 NW5       29.92S
COLLEGE PARK*  MOSUNNY   68  34  28 W10       29.89S
LEESBURG*      MOSUNNY   64  43  45 W7        29.92S
MANASSAS*      MOSUNNY   66  37  34 NW10      29.92R
GAITHERSBURG*  PTSUNNY   64  36  34 NW13      29.93S

$$

MDZ006>007-011-014-242200-
BALTIMORE METRO

CITY           SKY/WX    TMP DP  RH WIND       PRES   REMARKS
BWI AIRPORT    PTSUNNY   67  36  31 NW7       29.87S
MD SCIENCE CTR   N/A     67  34  29 MISG      29.86F
MARTIN STATE   MOSUNNY   66  39  37 W14       29.87S
ANNAPOLIS      SUNNY     66  36  32 W8        29.87S
FORT MEADE*    MOSUNNY   63  39  42 NW8G17    29.90S

$$

MDZ012-015-019>023-242200-
MARYLAND EASTERN SHORE

CITY           SKY/WX    TMP DP  RH WIND       PRES   REMARKS
OCEAN CITY     SUNNY     67  46  47 W8        29.85R
SALISBURY      MOSUNNY   67  45  45 W10       29.86R
BAY BRIDGE AP*   N/A     64  37  36 NW10      29.87S
CAMBRIDGE*     MOSUNNY   66  43  42 W6        29.87S

$$

MDZ017>025-242200-
SOUTHERN MARYLAND

CITY           SKY/WX    TMP DP  RH WIND       PRES   REMARKS
PATUXENT RIVER PTSUNNY   65  41  41 W13       29.89R
ST INIGOES     MOSUNNY   64  42  44 W10       29.89S
LEONARDTOWN*   MOSUNNY   64  39  39 W10       29.91S

$$

MDZ003>005-242200-
NORTH CENTRAL MARYLAND

CITY           SKY/WX    TMP DP  RH WIND       PRES   REMARKS
FREDERICK*     NOT AVBL
HAGERSTOWN APT CLOUDY    63  34  33 W15       29.92S
WESTMINSTER*   PTSUNNY   64  28  25 NW10G17   29.89S

$$

MDZ501>502-242200-
WESTERN MARYLAND

CITY           SKY/WX    TMP DP  RH WIND       PRES   REMARKS
OAKLAND*       PTSUNNY   52  32  46 NW8       30.01S
CUMBERLAND*    PTSUNNY   63  34  34 N6        30.00F

$$

VAZ025>031-242200-
SHENANDOAH VALLEY

CITY           SKY/WX    TMP DP  RH WIND       PRES   REMARKS
WINCHESTER*    PTSUNNY   64  28  25 W10       29.94S
FRONT ROYAL*   FAIR      64  32  29 NW6       29.93S
LURAY*         FAIR      68  34  28 CALM      29.94S
NEW MARKET*    FAIR      67  33  28 CALM      29.94S
STAUNTON*      MOSUNNY   67  37  32 E3        29.96F
WAYNESBORO*    FAIR      66  38  36 SW8       29.95S

$$

WVZ021-048>050-054>055-242200-
EASTERN WEST VIRGINIA PANHANDLE

CITY           SKY/WX    TMP DP  RH WIND       PRES   REMARKS
MARTINSBURG    PTSUNNY   63  32  31 W13       29.94R
PETERSBURG*    SUNNY     66  27  23 NW9       29.97S

$$

VAZ036>039-050-242200-
CENTRAL FOOTHILLS

CITY           SKY/WX    TMP DP  RH WIND       PRES   REMARKS
CHARLOTTESVILL MOSUNNY   69  39  33 CALM      29.93F
CULPEPER*      MOSUNNY   68  39  34 W6        29.93S
ORANGE*        MOSUNNY   70  37  30 SW6       29.94S
GORDONSVILLE*  FAIR      66  38  35 W3        29.93S
WARRENTON*     FAIR      68  47  47 CALM      29.91S

$$

VAZ055>057-242200-
NORTH AND CENTRAL PIEDMONT

CITY           SKY/WX    TMP DP  RH WIND       PRES   REMARKS
FREDERICKSBRG* SUNNY     66  43  43 W5        29.91S
STAFFORD*      SUNNY     65  38  37 CALM      29.95F

$$

NCZ024-NYZ072-PAZ021-071-VAZ022-071-242200-
OTHER REGIONAL OBSERVATIONS

CITY           SKY/WX    TMP DP  RH WIND       PRES   REMARKS
NEW YORK CITY  CLOUDY    63  44  50 VRB6      29.79S
PHILADELPHIA   PTSUNNY   68  44  42 NW14      29.81S
PITTSBURGH     MOSUNNY   60  37  42 W7        30.00F
ROANOKE        PTSUNNY   70  36  28 N7        29.98F
RICHMOND       PTSUNNY   69  39  33 NW8       29.93S
RALEIGH        PTSUNNY   68  47  46 SW5       29.96S

$$

ANZ530>537-242200-
MARINE OBSERVATIONS

STATION/POSITION TIME  TEMP    WIND        PRES
                       AIR SEA DIR/SP/G
                 (UTC) (F)     (DEG/KT/KT) (MB)
THOMAS PT LIGHT  2100   66 62  300/ 13/ 14 1012.4F
BALT KEY BRIDGE  2100   66     290/ 11/ 12 1011.0R
COVE POINT       2100   65     310/ 10/ 12 1011.7R
LEWISETTA        2100   65 60  310/ 10/ 12 1012.1S
SOLOMONS ISLAND  2100      64                N/A
PINEY POINT      2100          310/ 15/ 16   N/A

$$




USA.gov is the U.S. government's official web portal to all federal, state and local government web resources and services.